This demonstration page uses our WeatherBlox Daily Observations layout. Learn more.

Left ArrowRight Arrow

Hourly Observations for September 16, 2019

Temp ( °F °C ) Dew Point ( °F °C ) Humidity (%) Winds ( mph kmh ) Pressure ( in mb ) Visibility ( mi km ) Precip ( " mm )
12:15 am 00:15 Clear 63 17 59 15 88 88 Calm 30.12 1020 10 16 0.00 0.00
12:35 am 00:35 Clear 63 17 61 16 94 94 Calm 30.12 1020 10 16 0.00 0.00
12:55 am 00:55 Clear 61 16 59 15 94 94 Calm 30.13 1020 10 16 0.00 0.00
1:15 am 01:15 Clear 61 16 59 15 94 94 Calm 30.12 1020 10 16 0.00 0.00
1:35 am 01:35 Clear 63 17 59 15 88 88 Calm 30.12 1020 10 16 0.00 0.00
1:55 am 01:55 Mostly Cloudy 63 17 59 15 88 88 Calm 30.11 1019 10 16 0.00 0.00
2:15 am 02:15 Mostly Cloudy 61 16 59 15 94 94 Calm 30.11 1020 10 16 0.00 0.00
2:35 am 02:35 Mostly Cloudy 63 17 59 15 88 88 Calm 30.11 1019 10 16 0.00 0.00
2:55 am 02:55 Partly Cloudy 63 17 59 15 88 88 Calm 30.10 1019 10 16 0.00 0.00
3:15 am 03:15 Clear 63 17 61 16 94 94 Calm 30.10 1019 10 16 0.00 0.00
3:35 am 03:35 Mostly Cloudy 63 17 59 15 88 88 Calm 30.10 1019 10 16 0.00 0.00
3:55 am 03:55 Cloudy 63 17 59 15 88 88 Calm 30.10 1019 10 16 0.00 0.00
4:15 am 04:15 Cloudy 63 17 59 15 88 88 Calm 30.09 1019 10 16 0.00 0.00
4:35 am 04:35 Cloudy 61 16 61 16 100 100 Calm 30.10 1019 10 16 0.00 0.00
4:55 am 04:55 Partly Cloudy 63 17 61 16 94 94 Calm 30.09 1019 10 16 0.00 0.00
5:15 am 05:15 Clear 61 16 59 15 94 94 Calm 30.09 1019 10 16 0.00 0.00
5:35 am 05:35 Clear 59 15 59 15 100 100 Calm 30.09 1019 10 16 0.00 0.00
5:55 am 05:55 Clear 59 15 59 15 100 100 Calm 30.09 1019 10 16 0.00 0.00
6:15 am 06:15 Clear 57 14 57 14 100 100 Calm 30.09 1019 10 16 0.00 0.00
6:35 am 06:35 Clear 59 15 59 15 100 100 Calm 30.10 1019 10 16 0.00 0.00
6:55 am 06:55 Sunny 59 15 57 14 94 94 Calm 30.09 1019 10 16 0.00 0.00
7:15 am 07:15 Sunny 59 15 59 15 100 100 Calm 30.10 1019 10 16 0.00 0.00
7:35 am 07:35 Sunny 59 15 59 15 100 100 Calm 30.10 1019 10 16 0.00 0.00
7:55 am 07:55 Sunny 63 17 61 16 94 94 Calm 30.10 1019 10 16 0.00 0.00
8:15 am 08:15 Sunny 64 18 61 16 88 88 Calm 30.09 1019 10 16 0.00 0.00
8:35 am 08:35 Partly Cloudy 64 18 61 16 88 88 Calm 30.09 1019 10 16 0.00 0.00
8:55 am 08:55 Cloudy 68 20 61 16 78 78 Calm 30.09 1019 10 16 0.00 0.00
9:15 am 09:15 Partly Cloudy 70 21 61 16 73 73 Calm 30.09 1019 10 16 0.00 0.00
9:35 am 09:35 Sunny 72 22 59 15 65 65 Calm 30.09 1019 10 16 0.00 0.00
9:55 am 09:55 Sunny 73 23 61 16 65 65 Calm 30.10 1019 10 16 0.00 0.00
10:15 am 10:15 Sunny 77 25 61 16 57 57 Calm 30.08 1019 N/A 0.00 0.00
10:35 am 10:35 Sunny 77 25 63 17 61 61 Calm 30.08 1019 10 16 0.00 0.00
10:55 am 10:55 Mostly Cloudy 79 26 63 17 58 58 Calm 30.08 1019 10 16 0.00 0.00
11:15 am 11:15 Cloudy 79 26 63 17 58 58 NW 3 6 30.07 1018 10 16 0.00 0.00
11:35 am 11:35 Cloudy 81 27 63 17 54 54 Calm 30.07 1018 N/A 0.00 0.00
11:55 am 11:55 Cloudy 81 27 63 17 54 54 Calm 30.06 1018 N/A 0.00 0.00
12:15 pm 12:15 Cloudy 82 28 63 17 51 51 W 3 6 30.05 1018 N/A 0.00 0.00
12:35 pm 12:35 Mostly Cloudy 82 28 63 17 51 51 N 3 6 30.05 1018 N/A 0.00 0.00
12:55 pm 12:55 Partly Cloudy 84 29 63 17 48 48 Calm 30.04 1017 10 16 0.00 0.00
1:15 pm 13:15 Sunny 86 30 63 17 46 46 Calm 30.04 1017 10 16 0.00 0.00
1:35 pm 13:35 Sunny 86 30 61 16 43 43 Calm 30.02 1017 10 16 0.00 0.00
1:55 pm 13:55 Sunny 88 31 61 16 40 40 Calm 30.02 1016 10 16 0.00 0.00
2:15 pm 14:15 Sunny 88 31 63 17 43 43 SSW 3 6 30.01 1016 10 16 0.00 0.00
2:35 pm 14:35 Sunny 88 31 63 17 43 43 SW 5 7 30.00 1016 10 16 0.00 0.00
2:55 pm 14:55 Sunny 88 31 61 16 40 40 Calm 29.99 1015 10 16 0.00 0.00
3:15 pm 15:15 Sunny 88 31 61 16 40 40 WSW 6 9 29.99 1015 10 16 0.00 0.00
3:35 pm 15:35 Sunny 90 32 59 15 36 36 SW 8 13 29.98 1015 10 16 0.00 0.00
4:15 pm 16:15 Sunny 90 32 59 15 36 36 WNW 5 7 29.96 1014 10 16 0.00 0.00
4:35 pm 16:35 Sunny 90 32 59 15 36 36 SSE 3 6 29.95 1014 10 16 0.00 0.00
4:55 pm 16:55 Sunny 90 32 59 15 36 36 Calm 29.95 1014 10 16 0.00 0.00
5:15 pm 17:15 Partly Cloudy 88 31 59 15 38 38 NNW 6 9 29.95 1014 10 16 0.00 0.00
5:35 pm 17:35 Partly Cloudy 88 31 59 15 38 38 NE 6 9 29.94 1014 10 16 0.00 0.00
5:55 pm 17:55 Sunny 88 31 59 15 38 38 NNE 5 7 29.94 1014 10 16 0.00 0.00
6:15 pm 18:15 Sunny 88 31 59 15 38 38 NE 6 9 29.95 1014 10 16 0.00 0.00
6:35 pm 18:35 Sunny 86 30 59 15 40 40 NE 5 7 29.95 1014 10 16 0.00 0.00
6:55 pm 18:55 Sunny 86 30 59 15 40 40 NE 6 9 29.95 1014 10 16 0.00 0.00
7:15 pm 19:15 Partly Cloudy 84 29 61 16 45 45 NE 5 7 29.96 1015 10 16 0.00 0.00
7:35 pm 19:35 Cloudy 82 28 61 16 48 48 ENE 3 6 29.96 1015 10 16 0.00 0.00
7:55 pm 19:55 Cloudy 82 28 61 16 48 48 Calm 29.96 1015 10 16 0.00 0.00
8:15 pm 20:15 Cloudy 79 26 63 17 58 58 Calm 29.97 1015 10 16 0.00 0.00
8:35 pm 20:35 Cloudy 81 27 63 17 54 54 NE 5 7 29.98 1015 10 16 0.00 0.00
8:55 pm 20:55 Cloudy 79 26 64 18 61 61 NE 5 7 29.99 1016 10 16 0.00 0.00
9:15 pm 21:15 Mostly Cloudy 79 26 64 18 61 61 NE 7 11 30.00 1016 10 16 0.00 0.00
9:35 pm 21:35 Partly Cloudy 79 26 64 18 61 61 NE 5 7 30.00 1016 10 16 0.00 0.00
9:55 pm 21:55 Clear 77 25 64 18 65 65 NE 7 11 30.00 1016 10 16 0.00 0.00
10:15 pm 22:15 Partly Cloudy 77 25 64 18 65 65 NE 5 7 30.00 1016 10 16 0.00 0.00
10:35 pm 22:35 Mostly Cloudy 77 25 64 18 65 65 NE 7 11 30.00 1016 10 16 0.00 0.00
10:55 pm 22:55 Mostly Cloudy 77 25 64 18 65 65 NE 6 9 30.01 1016 10 16 0.00 0.00
11:15 pm 23:15 Mostly Cloudy 75 24 64 18 69 69 NE 6 9 30.02 1016 10 16 0.00 0.00
11:35 pm 23:35 Cloudy 75 24 64 18 69 69 NE 5 7 30.03 1017 10 16 0.00 0.00
11:55 pm 23:55 Cloudy 73 23 64 18 74 74 NNE 5 7 30.03 1017 10 16 0.00 0.00

Powered by AerisWeather